Location: Poughquag
(41.6090°N, 73.6820°W)
Time: 12:12:28
(UTC-04:00)

A-11 Canister half - Pass Details

Date: 03 June 2020
Orbit: 1527 x 1682 km, 47.3° (Epoch: 06 July)

Event Time Altitude Azimuth Distance (km) Brightness Sun altitude
Rises 15:44:02 0° 288° (WNW) 4,769 12.1 49.6°
Reaches altitude 10° 15:48:53 10° 267° (W) 3,812 12.0 48.7°
Maximum altitude 15:53:45 15° 236° (WSW) 3,442 11.8 47.8°
Drops below altitude 10° 15:58:43 10° 205° (SSW) 3,866 11.6 46.9°
Sets 16:03:44 0° 185° (S) 4,876 11.8 46.0°
